Terminal Aerodrome Forecast
Issued by NWS

Home | Current Version | Previous Version | Text Only | Print | Product List | Glossary On
Versions: 1 2 3 4 5 6 7 8 9 10 11 12 13 14 15 16 17 18
000
FTUS43 KJKL 020652 AAA
TAFSME
TAF AMD
KSME 020652Z 0207/0306 34003KT 5SM RA SCT007 OVC011
     FM021100 32003KT P6SM OVC006
     FM021400 VRB03KT P6SM SCT010 BKN022
     FM021700 VRB03KT P6SM SCT020 SCT100
     FM022100 VRB03KT P6SM FEW030 SCT250=

USA.gov is the U.S. government's official web portal to all federal, state and local government web resources and services.